STARLINK-34335 (64362 NORAD) Tracking and Keplerian Element Data

This shows tracking and keplerian element data for the satellite.

Feedback or suggestion? Click here.




ElementValue
Catalog64362
NameSTARLINK-34335
Epoch Orbit2876
Epoch Day354.10384486
Epoch Year2025
RAAN234.9992
Inclination69.9995
Eccentricity0.0002764
Argument of Perigee261.5186
Mean Anonmoly98.566
Mean Motion14.98320432
Decay Rate-2.36E-06
L11 64362U 25126U 25354.10384486 -.00000236 00000+0 -12009-4 0 9998
L22 64362 69.9995 234.9992 0002764 261.5186 98.5660 14.98320432 28769



Live tracking and technical data element details for STARLINK-34335 (NORAD 64362). STARLINK-34335 can be tracked NOW for your location showing map with azimuth and elevation plus other details from your city location.







IsCatalogInMostPopularTable: catalog: 64362, numindb: 10
Update: records affected: 1



GetName: 64362 STARLINK-34335

Hit Count: updated at: Tue, 21 Apr 2026 20:17:58 GMT